Flag for American Samoa Weather past 2 weeks in Pago Pago, American Samoa

Now
79 °F

Partly cloudy.


Feels Like: 82 °F
Forecast: 78 / 82 °F
Wind: 17 mph from Southeast

Location: Pago Pago / Int. Airp.

Current Time: Jul 1, 2015 at 5:08:48 AM

Latest Report: Jul 1, 2015 at 4:00 AM


Visibility: 10 mi

Pressure: 29.85 "Hg

Humidity: 79%

Dew point: 72 °F

Location of Pago PagoLocation

Historic Weather in Pago Pago — Graph

°F

Pago Pago temperature yesterday

Maximum temperature yesterday: 81 °F (at 12:50 PM)
Minimum temperature yesterday: 75 °F (at 5:00 AM)
Average temperature yesterday: 78 °F

Past Weeks' High & Low Weather Summary

 TemperatureHumidityPressure
High85 °F (Jun 16, 10:51 AM)100% (Jun 24, 10:50 PM)29.97 "Hg (Jun 24, 10:50 PM)
Low74 °F (Jun 24, 10:50 PM)63% (Jun 19, 5:50 AM)29.57 "Hg (Jun 21, 2:52 PM)
Average79 °F80%29.87 "Hg
* Reported Jun 16 3:51 AM — Jul 1 3:52 AM, Pago Pago, Weather by CustomWeather, © 2015

Note: Actual official high and low records may vary slightly from our data, if they occured in-between our weather recording intervals... More about our weather records

Advertising

Pago Pago weather history for previous 24 hours

 ConditionsComfort  
Time TempWeatherWind HumidityBarometerVisibility
3:52 AM
Wed, Jul 1
79 °FPartly cloudy.17 mph79%29.85 "Hg10 mi
3:00 AM79 °FPartly cloudy.17 mph79%29.86 "Hg10 mi
2:55 AM79 °FPartly cloudy.17 mph79%29.86 "Hg10 mi
2:00 AM79 °FPartly cloudy.16 mph78%29.88 "Hg10 mi
1:50 AM79 °FPartly cloudy.16 mph78%29.88 "Hg10 mi
12:00 AM80 °FPartly cloudy.16 mph78%29.90 "Hg10 mi
11:51 PM
Tue, Jun 30
80 °FPartly cloudy.16 mph78%29.90 "Hg10 mi
11:00 PM80 °FPartly cloudy.17 mph78%29.90 "Hg10 mi
10:50 PM80 °FPartly cloudy.17 mph78%29.90 "Hg10 mi
10:00 PM79 °FPartly cloudy.20 mph77%29.91 "Hg10 mi
9:50 PM79 °FPartly cloudy.20 mph79%29.91 "Hg10 mi
9:00 PM79 °FPartly cloudy.18 mph81%29.91 "Hg10 mi
8:50 PM79 °FPartly cloudy.18 mph81%29.91 "Hg10 mi
8:00 PM79 °FOvercast.21 mph78%29.90 "Hg10 mi
7:50 PM79 °FOvercast.21 mph78%29.90 "Hg10 mi
7:00 PM79 °FOvercast.18 mph79%29.88 "Hg10 mi
6:51 PM79 °FOvercast.18 mph79%29.88 "Hg10 mi
6:00 PM79 °FCloudy.20 mph79%29.87 "Hg12 mi
5:50 PM79 °FCloudy.20 mph79%29.87 "Hg12 mi
5:00 PM80 °FCloudy.24 mph79%29.85 "Hg12 mi
4:50 PM80 °FCloudy.24 mph79%29.85 "Hg12 mi
3:52 PM80 °FPartly sunny.22 mph76%29.85 "Hg12 mi
2:50 PM81 °FPartly sunny.21 mph78%29.85 "Hg12 mi
1:51 PM81 °FPartly sunny.20 mph79%29.88 "Hg12 mi
12:50 PM81 °FCloudy.20 mph79%29.90 "Hg12 mi
11:50 AM80 °FCloudy.21 mph78%29.91 "Hg12 mi
11:00 AM80 °FPartly sunny.20 mph79%29.93 "Hg12 mi
10:50 AM80 °FPartly sunny.20 mph79%29.93 "Hg12 mi
10:00 AM80 °FBroken clouds.21 mph76%29.93 "Hg12 mi
9:50 AM80 °FBroken clouds.21 mph76%29.93 "Hg12 mi
9:00 AM78 °FMostly cloudy.17 mph83%29.93 "Hg12 mi
8:51 AM78 °FMostly cloudy.17 mph83%29.93 "Hg12 mi
8:00 AM77 °FSprinkles. Cloudy.26 mph88%29.92 "Hg10 mi
7:51 AM77 °FSprinkles. Cloudy.26 mph88%29.92 "Hg10 mi
7:00 AM77 °FSprinkles. Cloudy.16 mph88%29.90 "Hg11 mi
6:53 AM77 °FSprinkles. Cloudy.16 mph88%29.90 "Hg11 mi
6:00 AM75 °FSprinkles. Mostly cloudy.15 mph92%29.89 "Hg8 mi
5:50 AM75 °FSprinkles. Mostly cloudy.15 mph92%29.89 "Hg8 mi
5:00 AM75 °FSprinkles. Mostly cloudy.23 mph94%29.88 "Hg8 mi
Weather by CustomWeather, © 2015

See weather overviewHow to use our weather pages